User: anonymous   Login
Location: Newark
(46.7000°N, 60.6000°W)
Time: 14:30:10
(UTC+00:00)
Language:

SR - Orbit

View from above orbital plane
View from above orbital plane
View from above satellite
View from above satellite

Ground track
Ground track

The orbit data is extracted from the following two-line orbital elements,

1    46U 60007B   20304.03034570 -.00000010  00000-0  21186-4 0  9998
2    46  66.6923  42.9060 0206316  29.1118 332.1306 14.49325812158602
Epoch (UTC): 30 October 2020 00:43:41
Eccentricity: 0.0206316
inclination: 66.6923°
perigee height: 581 km
apogee height: 874 km
right ascension of ascending node: 42.9060°
argument of perigee: 29.1118°
revolutions per day: 14.49325812
mean anomaly at epoch: 332.1306°
orbit number at epoch: 15860

The dashed part of the orbit path shows where the satellite is in the earth's shadow,  

DLR